Hourly Weather Lugi

Today, 10 May, Monday

Time Temperature Precipitation Wind Pressure Humidity
00:00 +4°C° 0 mm 1 mps 746 mmHg 67%
01:00 +3°C° 0 mm 1 mps 747 mmHg 69%
02:00 +3°C° 0 mm 1 mps 747 mmHg 71%
03:00 +3°C° 0 mm 1 mps 747 mmHg 71%
04:00 +3°C° 0 mm 1 mps 747 mmHg 71%
05:00 +3°C° 0 mm 2 mps 748 mmHg 71%
06:00 +5°C° 0 mm 2 mps 748 mmHg 63%
07:00 +8°C° 0 mm 2 mps 748 mmHg 56%
08:00 +10°C° 0 mm 3 mps 749 mmHg 48%
09:00 +11°C° 0 mm 3 mps 748 mmHg 44%
10:00 +13°C° 0 mm 3 mps 748 mmHg 41%
11:00 +14°C° 0 mm 3 mps 748 mmHg 37%
12:00 +14°C° 0 mm 3 mps 748 mmHg 37%
13:00 +16°C° 0 mm 3 mps 748 mmHg 37%
14:00 +17°C° 0 mm 2 mps 748 mmHg 38%
15:00 +17°C° 0 mm 2 mps 748 mmHg 40%
16:00 +16°C° 0 mm 2 mps 748 mmHg 42%
17:00 +16°C° 0 mm 2 mps 748 mmHg 44%
18:00 +14°C° 0 mm 2 mps 748 mmHg 52%
19:00 +12°C° 0 mm 2 mps 749 mmHg 61%
20:00 +9°C° 0 mm 2 mps 749 mmHg 69%
21:00 +8°C° 0 mm 2 mps 749 mmHg 71%
22:00 +8°C° 0 mm 2 mps 749 mmHg 73%
23:00 +7°C° 0 mm 2 mps 749 mmHg 74%

Tomorrow, 11 May, Tuesday

Time Temperature Precipitation Wind Pressure Humidity
00:00 +6°C° 0 mm 2 mps 749 mmHg 75%
01:00 +6°C° 0 mm 2 mps 749 mmHg 76%
02:00 +5°C° 0 mm 2 mps 750 mmHg 77%
03:00 +7°C° 0 mm 1 mps 750 mmHg 76%
04:00 +7°C° 0 mm 1 mps 750 mmHg 75%
05:00 +7°C° 0 mm 1 mps 750 mmHg 74%
06:00 +9°C° 0 mm 1 mps 750 mmHg 66%
07:00 +10°C° 0 mm 2 mps 750 mmHg 57%
08:00 +14°C° 0 mm 2 mps 750 mmHg 49%
09:00 +15°C° 0 mm 2 mps 750 mmHg 44%
10:00 +17°C° 0 mm 2 mps 750 mmHg 39%
11:00 +18°C° 0 mm 2 mps 750 mmHg 35%
12:00 +19°C° 0 mm 2 mps 749 mmHg 34%
13:00 +20°C° 0 mm 3 mps 749 mmHg 33%
14:00 +20°C° 0 mm 3 mps 749 mmHg 32%
15:00 +20°C° 0 mm 3 mps 749 mmHg 36%
16:00 +20°C° 0 mm 3 mps 748 mmHg 39%
17:00 +19°C° 0 mm 3 mps 748 mmHg 42%
18:00 +17°C° 0 mm 2 mps 748 mmHg 51%
19:00 +14°C° 0 mm 2 mps 748 mmHg 61%
20:00 +12°C° 0 mm 2 mps 748 mmHg 70%
21:00 +10°C° 0 mm 2 mps 748 mmHg 73%
22:00 +9°C° 0 mm 2 mps 748 mmHg 76%
23:00 +9°C° 0 mm 2 mps 748 mmHg 78%

Day after tomorrow, 12 May, Wednesday

Time Temperature Precipitation Wind Pressure Humidity
00:00 +8°C° 0 mm 2 mps 748 mmHg 82%
01:00 +8°C° 0 mm 2 mps 748 mmHg 85%
02:00 +8°C° 0 mm 2 mps 748 mmHg 89%
03:00 +8°C° 0 mm 2 mps 748 mmHg 90%
04:00 +9°C° 0 mm 2 mps 748 mmHg 92%
05:00 +9°C° 0 mm 2 mps 748 mmHg 93%
06:00 +12°C° 0 mm 2 mps 748 mmHg 86%
07:00 +15°C° 0 mm 2 mps 748 mmHg 80%
08:00 +17°C° 0 mm 2 mps 748 mmHg 73%
09:00 +18°C° 0 mm 2 mps 747 mmHg 68%
10:00 +19°C° 0 mm 3 mps 747 mmHg 63%
11:00 +21°C° 0 mm 3 mps 747 mmHg 58%
12:00 +21°C° 0.3 mm 3 mps 746 mmHg 57%
13:00 +21°C° 0.3 mm 4 mps 746 mmHg 56%
14:00 +22°C° 0.3 mm 4 mps 745 mmHg 55%
15:00 +21°C° 0.4 mm 4 mps 745 mmHg 59%
16:00 +20°C° 0.4 mm 5 mps 744 mmHg 63%
17:00 +19°C° 0.4 mm 5 mps 743 mmHg 67%
18:00 +17°C° 0.5 mm 5 mps 743 mmHg 75%
19:00 +15°C° 0.5 mm 5 mps 743 mmHg 83%
20:00 +14°C° 0.5 mm 5 mps 742 mmHg 90%
21:00 +13°C° 0.2 mm 5 mps 742 mmHg 90%
22:00 +12°C° 0.2 mm 5 mps 742 mmHg 90%
23:00 +10°C° 0.2 mm 5 mps 743 mmHg 90%

13 May, Thursday

Time Temperature Precipitation Wind Pressure Humidity
00:00 +10°C° 0 mm 4 mps 743 mmHg 92%
01:00 +8°C° 0 mm 3 mps 743 mmHg 95%
02:00 +6°C° 0 mm 2 mps 743 mmHg 97%
03:00 +6°C° 0 mm 2 mps 743 mmHg 96%
04:00 +5°C° 0 mm 3 mps 743 mmHg 94%
05:00 +7°C° 0 mm 3 mps 743 mmHg 93%
06:00 +8°C° 0 mm 3 mps 743 mmHg 86%
07:00 +10°C° 0 mm 4 mps 743 mmHg 79%
08:00 +12°C° 0 mm 5 mps 742 mmHg 72%
09:00 +12°C° 0.1 mm 5 mps 742 mmHg 73%
10:00 +12°C° 0.1 mm 5 mps 742 mmHg 74%
11:00 +12°C° 0.1 mm 5 mps 742 mmHg 75%
12:00 +13°C° 0.2 mm 5 mps 742 mmHg 69%
13:00 +14°C° 0.2 mm 5 mps 742 mmHg 64%
14:00 +15°C° 0.2 mm 5 mps 742 mmHg 58%
15:00 +15°C° 0 mm 5 mps 741 mmHg 58%
16:00 +15°C° 0 mm 4 mps 741 mmHg 57%
17:00 +16°C° 0 mm 3 mps 741 mmHg 57%
18:00 +14°C° 0 mm 3 mps 741 mmHg 65%
19:00 +13°C° 0 mm 2 mps 741 mmHg 73%
20:00 +12°C° 0 mm 2 mps 741 mmHg 81%
21:00 +10°C° 0 mm 2 mps 741 mmHg 85%
22:00 +9°C° 0 mm 2 mps 741 mmHg 89%
23:00 +8°C° 0 mm 2 mps 741 mmHg 93%

14 May, Friday

Time Temperature Precipitation Wind Pressure Humidity
00:00 +8°C° 0 mm 2 mps 741 mmHg 94%
01:00 +8°C° 0 mm 2 mps 741 mmHg 95%
02:00 +8°C° 0 mm 2 mps 741 mmHg 96%
03:00 +9°C° 0 mm 2 mps 741 mmHg 94%
04:00 +9°C° 0 mm 2 mps 741 mmHg 92%
05:00 +10°C° 0 mm 3 mps 741 mmHg 90%
06:00 +11°C° 0 mm 3 mps 741 mmHg 84%
07:00 +13°C° 0 mm 3 mps 740 mmHg 78%
08:00 +14°C° 0 mm 4 mps 740 mmHg 73%
09:00 +17°C° 0.1 mm 4 mps 740 mmHg 68%
10:00 +19°C° 0.1 mm 5 mps 739 mmHg 62%
11:00 +20°C° 0.1 mm 6 mps 739 mmHg 57%
12:00 +20°C° 0.6 mm 5 mps 739 mmHg 64%
13:00 +19°C° 0.6 mm 5 mps 738 mmHg 70%
14:00 +19°C° 0.6 mm 5 mps 738 mmHg 77%
15:00 +18°C° 1.2 mm 4 mps 737 mmHg 80%
16:00 +17°C° 1.2 mm 4 mps 737 mmHg 84%
17:00 +17°C° 1.2 mm 3 mps 736 mmHg 87%
18:00 +16°C° 2.9 mm 3 mps 736 mmHg 89%
19:00 +16°C° 2.9 mm 3 mps 735 mmHg 91%
20:00 +14°C° 2.9 mm 3 mps 735 mmHg 93%
21:00 +14°C° 0.3 mm 3 mps 735 mmHg 94%
22:00 +13°C° 0.3 mm 3 mps 735 mmHg 96%
23:00 +12°C° 0.3 mm 3 mps 735 mmHg 97%

15 May, Saturday

Time Temperature Precipitation Wind Pressure Humidity
00:00 +12°C° 0 mm 3 mps 735 mmHg 97%
01:00 +12°C° 0 mm 3 mps 735 mmHg 97%
02:00 +12°C° 0 mm 3 mps 735 mmHg 97%
03:00 +12°C° 0 mm 3 mps 735 mmHg 97%
04:00 +12°C° 0 mm 3 mps 735 mmHg 97%
05:00 +12°C° 0 mm 3 mps 735 mmHg 97%
06:00 +12°C° 0 mm 3 mps 736 mmHg 94%
07:00 +13°C° 0 mm 3 mps 736 mmHg 91%
08:00 +13°C° 0 mm 3 mps 736 mmHg 88%
09:00 +14°C° 0 mm 3 mps 737 mmHg 85%
10:00 +16°C° 0 mm 3 mps 737 mmHg 81%
11:00 +17°C° 0 mm 3 mps 737 mmHg 77%
12:00 +18°C° 0.1 mm 2 mps 737 mmHg 72%
13:00 +19°C° 0.1 mm 2 mps 737 mmHg 67%
14:00 +20°C° 0.1 mm 2 mps 738 mmHg 62%
15:00 +20°C° 0.1 mm 1 mps 737 mmHg 65%
16:00 +20°C° 0.1 mm 1 mps 737 mmHg 67%
17:00 +20°C° 0.1 mm 1 mps 737 mmHg 70%
18:00 +18°C° 0 mm 1 mps 737 mmHg 75%
19:00 +16°C° 0 mm 1 mps 737 mmHg 80%
20:00 +15°C° 0 mm 1 mps 737 mmHg 85%
21:00 +14°C° 0 mm 1 mps 737 mmHg 88%
22:00 +13°C° 0 mm 1 mps 737 mmHg 91%
23:00 +13°C° 0 mm 1 mps 737 mmHg 94%
Show more

We Need Your Consent

Meteoprog and our Service Providers may store and access personal data such as cookies, device identifiers or other similar technologies on your device and process such data to personalise content and ads, as well as provide social media features and to analyse the traffic.

  • Store and/or access information on your device

    Cookies, device identifiers or other information can be stored or accessed on your device for the purposes indicated above.

  • Personalised ads and content, ad and content measurement, audience insights, and products development

    Ads and content can be personalised based on a profile. More data can be added to better personalise ads and content. Ad and content performance can be measured. Insights about the audience who saw the ads and content can be derived. Such data can be used to develop or improve user’s experience, systems and software.

By clicking ‘I Agree’ you will allow the use of indicated cookies, device identifiers, web beacons or other similar technologies. Your settings can be changed in the browser on your device.

For certain purposes, legitimate interests may be relied on, rather than consent. You can read more about this in our Privacy and Cookie Policy.